Вернуться в каталог

STARLINK-4683

АктивенСвязьVLEO
NORAD 53712·PAYLOAD·🇺🇸 United States

Запущен Sep 5, 2022 с Cape Canaveral Space Force Station

Loading…

Ближайшие Пролёты (ближайшие 24 часа)

TLE

СвежийSource: CelesTrak SupGP

Эпоха: Sep 14, 2026, 20:58 UTC

1 53712C 22107N   26257.87409722 -.00039621  00000+0 -11708-2 0  2579
2 53712  53.1572 110.1303 0001253  84.0126 293.5598 15.34405733    11

Отслеживайте STARLINK-4683 в реальном времени с AllMySat

Download on the App Store